ZHONGXING-6E

Last updated on Fri Apr 18 2025 00:02:43 GMT+0000 (Coordinated Universal Time)

1 58253U 23172A 25107.55691661 -.00000352 00000+0 00000+0 0 9991 2 58253 0.0256 97.4989 0002393 227.7180 196.6645 1.00268317 5390
UTC large
Height (km)
Speed (km/s)
/
Latitude / Longitude
Inclination (degrees)
Orbital Period (minutes)
Azimuth
Elevation
Range (km)
Doppler Factor

Next 0 passes for location: London (51.5072 / 0.1276)

Sorry there are no passes over London.